Wind_Speed
14 15 15 15 15 16 17 16 15 15 13 13 13 14 13 12 12 11 10 9 9 9 8 9 7 7 6 5 4 3 2 2 2 3 4 5 6 8 9 11 12 13 13 14
12 14 15 16 16 15 16 16 15 15 14 14 14 14 14 13 12 11 10 10 10 10 9 9 8 8 7 6 5 3 2 2 2 2 3 4 6 7 8 10 11 12 13 14
11 12 14 15 16 15 15 15 15 15 14 14 14 14 14 14 12 11 11 11 10 9 10 10 9 9 8 7 6 4 3 3 3 2 3 4 5 6 7 8 9 10 11 13
10 11 14 15 14 15 16 15 15 15 14 14 15 15 15 15 13 13 12 12 10 10 10 10 10 10 9 8 7 5 4 3 3 3 2 3 3 4 6 7 8 9 10 12
10 11 13 14 14 14 14 15 15 16 14 14 15 16 15 15 14 13 12 13 11 11 10 10 10 10 9 9 8 7 5 4 4 3 2 2 2 3 4 6 6 8 9 10
9 10 12 13 14 14 15 14 15 15 15 14 14 15 14 13 12 12 12 12 12 11 10 10 10 10 10 9 9 7 6 5 5 3 2 2 1 2 3 4 5 6 7 8
8 9 10 12 14 14 15 14 14 15 15 13 13 14 12 12 11 12 13 12 12 11 11 11 11 10 10 9 8 7 7 6 5 4 3 2 1 1 2 3 4 5 6 7
8 9 10 11 12 13 14 14 14 13 13 13 13 13 12 11 12 12 13 12 12 12 11 12 11 11 11 10 9 8 7 7 6 5 4 3 1 1 1 2 3 4 5 6
7 8 10 11 12 14 14 14 13 13 12 13 13 12 11 11 12 13 12 12 12 12 11 11 12 12 11 10 9 9 8 8 7 6 5 4 2 1 0 1 2 3 4 5
6 7 10 11 13 13 14 15 14 12 12 12 12 11 11 11 12 12 13 13 12 13 12 12 13 12 12 11 10 10 10 9 8 7 6 5 4 2 1 1 1 2 2 3
6 7 8 11 11 12 13 14 13 13 12 12 11 11 10 11 11 12 12 13 13 13 13 13 13 13 13 12 11 10 10 10 9 8 7 6 5 4 3 2 2 2 2 3
7 7 8 10 12 12 13 13 12 12 11 12 12 11 11 11 11 11 12 13 14 13 14 14 14 13 13 13 12 11 10 10 10 9 8 7 6 6 5 4 4 3 3 3
7 7 8 9 11 11 12 11 11 11 12 12 12 11 11 11 12 12 12 12 13 14 14 14 14 14 14 13 12 12 11 10 10 10 10 9 8 7 7 6 6 5 5 5
8 8 7 8 9 10 10 10 11 12 12 11 11 12 11 12 12 11 12 12 13 14 14 13 14 14 14 13 13 13 12 12 11 11 11 10 10 9 9 8 8 7 7 7
9 9 9 8 9 10 10 10 11 12 12 12 11 12 12 12 12 12 12 12 12 13 13 13 13 14 14 14 14 13 13 13 13 12 12 12 11 10 10 10 9 9 9 9
10 10 10 10 10 10 10 10 11 12 14 13 12 12 13 14 13 12 12 12 12 13 13 13 13 14 14 15 15 15 15 15 14 14 13 13 13 12 12 12 12 12 11 11
11 11 11 11 11 11 11 11 11 12 12 12 12 12 13 13 12 12 12 12 12 13 13 15 15 15 16 16 16 16 16 16 15 15 15 15 15 14 14 14 14 14 14 13
12 12 12 11 11 12 10 11 12 12 12 12 12 12 12 12 12 12 12 12 13 13 14 15 16 17 17 17 17 17 17 16 16 17 17 16 16 16 16 16 16 16 16 16
13 13 12 12 12 11 11 11 12 12 11 11 12 12 12 12 13 13 13 13 13 13 14 15 16 17 18 18 18 19 18 18 18 18 18 18 18 18 18 18 18 18 18 18
15 15 14 13 13 12 11 12 13 13 12 11 12 12 13 13 13 13 13 14 14 14 15 16 16 16 17 18 19 19 19 19 20 20 20 20 20 20 20 20 20 20 19 19
17 16 15 14 14 13 13 13 13 13 12 13 13 14 14 14 13 13 13 14 15 15 16 16 16 16 17 18 20 20 20 20 21 21 21 21 21 21 21 21 21 21 21 21
18 17 16 16 16 14 14 14 14 13 13 13 14 15 15 15 14 14 15 15 16 16 16 16 17 17 18 19 19 20 20 21 22 21 22 22 22 22 23 23 23 23 23 23
19 18 17 18 16 15 14 13 13 13 14 14 14 15 15 16 16 17 16 17 17 17 18 18 19 19 20 20 21 21 22 22 22 22 23 23 24 24 24 24 25 25 25 25
21 20 19 19 17 16 15 15 15 14 15 14 14 15 16 17 18 19 18 18 18 19 20 21 22 21 21 22 22 23 23 23 24 24 25 25 26 26 26 27 27 27 27 27
24 22 20 20 19 17 16 16 16 16 16 16 16 17 17 18 18 19 20 20 20 20 21 21 21 22 22 23 23 24 24 25 26 26 26 27 27 28 29 29 29 29 29 30
25 24 23 22 20 19 19 19 18 19 19 19 18 18 18 19 19 20 20 21 22 22 22 22 23 23 24 25 25 25 25 26 27 27 28 28 29 30 30 30 30 31 31 32
Wind_Direction
220 221 220 218 216 216 212 210 213 214 211 213 211 210 208 208 206 203 201 201 202 202 209 202 197 197 187 182 182 168 152 132 109 82 69 62 55 51 47 43 40 38 38 40
220 218 219 216 212 210 208 208 209 210 210 213 214 213 209 208 206 206 206 201 198 199 199 195 196 193 188 188 185 173 166 154 134 104 85 74 61 54 49 43 40 40 41 40
218 212 210 210 209 206 206 203 205 209 210 212 214 211 210 210 209 210 206 202 195 194 197 196 196 196 193 191 190 186 180 167 147 120 101 84 67 56 49 44 42 43 41 41
201 205 206 207 203 201 204 205 208 209 209 209 211 212 206 209 208 205 200 197 196 200 198 197 196 193 192 193 194 193 190 178 160 140 116 97 75 56 49 47 46 44 41 41
195 198 200 202 202 202 204 209 212 212 213 215 214 215 210 207 204 205 204 199 197 198 197 196 196 195 195 196 196 195 197 190 177 159 141 120 83 59 55 51 46 43 41 40
198 197 198 198 198 200 204 209 210 212 214 219 219 220 210 203 199 202 204 203 202 199 196 196 196 198 200 201 200 197 197 192 188 178 167 149 103 70 60 52 44 41 39 40
194 194 193 192 197 201 204 207 211 213 216 221 220 219 213 204 199 202 204 206 205 202 200 199 198 200 201 203 204 202 200 199 199 195 189 179 148 86 59 52 45 42 40 38
195 196 197 198 203 206 205 208 212 216 218 221 220 217 212 209 207 207 207 207 207 207 204 201 203 204 203 206 207 209 206 203 203 199 196 193 172 125 68 56 47 41 36 32
200 205 202 203 202 206 208 209 214 217 219 221 218 215 212 208 212 211 210 210 210 206 207 208 206 206 206 207 210 212 210 207 206 204 201 200 195 189 168 53 38 33 31 27
197 202 207 206 202 206 210 213 215 218 219 221 220 214 211 215 214 213 210 209 209 210 214 215 211 211 212 212 216 215 213 211 211 211 211 211 208 205 213 258 322 353 10 14
199 204 202 202 202 208 213 217 218 217 219 221 216 209 212 212 212 208 206 208 207 212 216 217 216 215 213 212 215 215 215 215 216 220 223 222 223 226 235 252 282 300 318 335
206 208 204 204 205 211 213 213 216 216 218 216 212 207 211 212 215 214 212 207 206 211 214 214 216 218 216 214 214 218 219 221 220 225 229 230 232 236 243 252 265 279 296 301
207 209 206 203 205 208 209 213 217 220 222 220 216 212 212 217 221 223 219 212 208 210 211 212 214 217 217 217 218 220 222 226 226 228 233 237 238 241 246 251 258 266 277 290
212 217 215 210 208 206 211 217 217 222 224 223 226 222 222 224 224 223 220 216 211 208 208 210 214 219 219 219 220 222 225 230 231 234 238 241 243 244 249 253 258 264 273 281
218 219 218 213 211 210 212 215 219 224 225 228 226 226 226 225 220 217 215 214 210 206 207 210 215 219 222 225 227 228 229 232 235 239 241 243 246 248 251 254 259 264 270 276
223 221 218 218 215 212 210 217 221 222 224 226 227 224 224 226 227 221 216 214 212 211 213 216 219 222 225 228 230 231 233 236 237 241 242 245 247 250 252 255 259 263 268 273
225 225 222 220 222 224 227 223 221 219 222 226 231 229 224 226 226 225 223 222 222 222 223 224 225 226 228 231 232 233 236 239 239 242 244 246 249 251 254 257 261 264 268 272
220 219 220 222 226 227 222 222 220 220 222 227 230 227 225 225 225 227 228 228 227 228 232 232 231 231 232 234 235 236 238 241 241 243 246 248 250 253 256 260 263 266 269 272
221 221 222 222 223 221 222 223 225 223 224 227 228 227 229 233 231 231 234 235 233 233 238 237 236 237 236 237 238 239 241 243 244 245 247 250 253 255 258 261 264 267 269 271
224 225 226 227 229 226 226 228 230 232 231 229 229 231 235 240 238 235 236 238 240 238 241 242 242 241 240 241 242 242 244 247 247 247 249 252 255 257 260 262 265 268 270 271
225 228 231 231 231 228 228 229 233 234 233 232 233 234 238 240 239 239 239 241 244 245 244 245 245 245 246 247 246 246 247 249 249 249 252 253 256 257 260 264 267 268 270 272
228 232 235 233 235 231 231 232 236 238 236 238 238 239 241 242 242 241 243 245 249 250 250 248 247 246 246 247 248 249 249 250 250 251 253 255 257 259 261 264 266 268 269 271
230 234 238 239 241 240 239 241 243 244 246 247 246 245 245 245 245 246 248 249 250 251 251 250 248 248 249 248 249 250 251 252 252 252 255 257 259 261 262 264 265 268 270 272
234 237 240 240 239 242 244 245 247 251 252 253 254 253 253 253 253 252 253 253 252 253 255 253 249 249 250 250 251 252 252 253 254 255 257 259 261 262 264 265 267 270 271 273
237 240 242 242 242 244 246 248 250 253 255 257 257 255 255 256 256 255 254 255 254 254 256 257 255 253 252 253 254 254 254 254 255 256 258 260 261 262 264 267 269 270 272 274
237 239 244 244 243 246 249 251 254 256 258 261 261 258 257 257 257 258 258 256 257 258 259 259 257 256 255 255 255 255 256 257 258 259 262 262 263 264 265 266 268 269 271 273
Height
5843 5846 5847 5849 5851 5854 5855 5858 5861 5864 5866 5868 5870 5873 5875 5877 5879 5881 5882 5884 5885 5887 5889 5890 5891 5892 5894 5894 5895 5896 5896 5896 5895 5895 5895 5894 5893 5892 5890 5888 5886 5884 5882 5879
5841 5842 5844 5846 5849 5851 5853 5856 5859 5862 5864 5866 5868 5871 5873 5875 5877 5879 5881 5882 5884 5886 5887 5889 5890 5891 5893 5894 5895 5895 5895 5895 5895 5895 5895 5894 5893 5892 5891 5889 5887 5885 5883 5881
5838 5841 5842 5844 5847 5850 5852 5854 5857 5860 5862 5864 5866 5868 5871 5873 5875 5877 5879 5881 5883 5885 5886 5888 5889 5891 5892 5893 5894 5895 5895 5895 5895 5895 5895 5895 5894 5893 5892 5890 5889 5887 5885 5883
5837 5839 5841 5843 5845 5848 5850 5853 5855 5857 5859 5862 5865 5866 5869 5871 5874 5876 5878 5880 5882 5883 5885 5886 5888 5890 5891 5892 5894 5894 5895 5895 5895 5895 5895 5895 5894 5894 5893 5891 5890 5888 5887 5885
5836 5837 5839 5841 5844 5846 5849 5851 5853 5855 5857 5860 5862 5864 5867 5869 5872 5874 5876 5878 5880 5882 5883 5885 5887 5888 5890 5891 5893 5894 5894 5895 5895 5895 5895 5895 5895 5894 5893 5892 5891 5890 5888 5886
5834 5836 5838 5840 5843 5845 5847 5850 5851 5853 5856 5859 5860 5862 5865 5867 5870 5873 5875 5877 5879 5880 5882 5883 5885 5887 5889 5890 5891 5893 5894 5894 5894 5895 5895 5895 5894 5894 5894 5893 5892 5891 5889 5888
5834 5835 5837 5839 5841 5843 5846 5849 5850 5852 5854 5856 5858 5860 5864 5866 5868 5870 5873 5875 5876 5878 5880 5882 5884 5886 5887 5889 5890 5891 5892 5893 5894 5894 5894 5894 5894 5894 5894 5893 5892 5891 5890 5889
5833 5835 5836 5838 5840 5842 5843 5847 5850 5851 5853 5854 5856 5858 5862 5863 5865 5868 5870 5872 5874 5876 5878 5880 5882 5884 5886 5887 5889 5890 5891 5892 5893 5893 5894 5894 5894 5894 5893 5893 5892 5891 5890 5889
5833 5834 5835 5836 5838 5840 5842 5845 5847 5849 5850 5852 5854 5857 5859 5861 5863 5865 5868 5870 5872 5875 5876 5878 5880 5882 5884 5885 5887 5888 5890 5891 5892 5892 5893 5893 5893 5893 5893 5893 5892 5892 5891 5890
5832 5833 5834 5836 5837 5839 5841 5843 5845 5847 5848 5850 5852 5854 5857 5858 5860 5862 5865 5867 5870 5872 5874 5876 5878 5880 5882 5883 5885 5886 5888 5889 5890 5891 5892 5892 5892 5892 5892 5892 5892 5891 5891 5890
5830 5832 5833 5834 5836 5838 5840 5842 5843 5845 5846 5848 5850 5854 5855 5856 5858 5860 5862 5864 5867 5869 5871 5873 5875 5877 5879 5881 5883 5884 5886 5887 5889 5890 5890 5891 5891 5891 5891 5891 5891 5891 5890 5889
5829 5831 5831 5833 5834 5835 5837 5839 5841 5843 5844 5846 5848 5853 5852 5854 5855 5857 5859 5861 5864 5866 5869 5871 5873 5875 5877 5879 5881 5882 5884 5885 5887 5888 5888 5889 5889 5890 5890 5890 5890 5890 5889 5888
5828 5829 5830 5831 5835 5835 5835 5837 5838 5840 5842 5843 5845 5850 5850 5851 5853 5855 5857 5859 5861 5863 5866 5868 5870 5872 5875 5876 5878 5880 5881 5883 5884 5885 5886 5887 5887 5888 5888 5888 5888 5888 5888 5887
5827 5828 5829 5831 5831 5832 5833 5835 5836 5838 5840 5841 5844 5846 5848 5849 5851 5852 5854 5856 5858 5860 5863 5865 5867 5869 5872 5874 5875 5877 5879 5880 5882 5883 5884 5884 5885 5885 5886 5886 5886 5886 5886 5885
5825 5826 5827 5828 5829 5830 5831 5833 5834 5835 5837 5839 5841 5843 5845 5846 5848 5850 5852 5853 5855 5857 5860 5862 5865 5867 5869 5871 5872 5874 5876 5877 5879 5880 5881 5881 5882 5883 5883 5883 5884 5883 5883 5882
5823 5824 5825 5826 5827 5828 5829 5831 5832 5833 5835 5837 5838 5841 5842 5844 5845 5847 5849 5851 5853 5855 5857 5859 5862 5863 5865 5867 5869 5871 5873 5874 5875 5876 5877 5878 5879 5879 5880 5880 5880 5880 5880 5879
5821 5822 5823 5824 5825 5826 5828 5829 5830 5831 5833 5834 5836 5839 5840 5841 5843 5844 5846 5849 5850 5852 5854 5856 5858 5860 5862 5864 5866 5867 5869 5870 5871 5872 5873 5874 5875 5875 5876 5876 5876 5876 5876 5876
5818 5819 5821 5822 5824 5825 5828 5826 5827 5829 5830 5832 5834 5835 5837 5839 5841 5842 5844 5846 5847 5849 5851 5852 5854 5857 5858 5860 5861 5863 5864 5866 5867 5868 5869 5870 5870 5871 5871 5872 5872 5872 5872 5872
5816 5817 5818 5819 5820 5822 5824 5824 5825 5826 5828 5830 5831 5833 5834 5836 5838 5839 5841 5843 5844 5846 5847 5849 5851 5852 5854 5855 5857 5858 5859 5861 5862 5863 5864 5865 5866 5866 5867 5867 5867 5867 5867 5867
5812 5814 5816 5817 5818 5819 5822 5822 5822 5825 5825 5827 5828 5830 5831 5833 5835 5837 5838 5839 5841 5842 5844 5845 5846 5848 5849 5850 5852 5853 5855 5856 5857 5858 5859 5860 5860 5861 5861 5861 5861 5862 5861 5861
5809 5810 5811 5813 5814 5816 5818 5819 5820 5822 5824 5824 5825 5826 5827 5829 5831 5833 5834 5835 5837 5838 5839 5841 5842 5843 5845 5846 5847 5849 5850 5851 5851 5852 5853 5854 5854 5855 5855 5855 5856 5856 5856 5855
5805 5806 5807 5809 5810 5814 5814 5815 5817 5818 5819 5820 5821 5822 5824 5825 5827 5828 5830 5831 5832 5833 5835 5836 5837 5839 5840 5841 5842 5843 5844 5845 5845 5846 5847 5848 5848 5849 5849 5849 5849 5849 5849 5849
5801 5803 5804 5806 5809 5809 5810 5811 5813 5814 5815 5817 5818 5819 5820 5821 5822 5824 5825 5826 5827 5828 5829 5830 5832 5833 5834 5835 5836 5838 5838 5839 5839 5840 5841 5841 5842 5842 5842 5842 5842 5842 5842 5842
5796 5797 5799 5800 5802 5804 5806 5807 5809 5810 5811 5812 5813 5814 5816 5816 5817 5819 5820 5821 5822 5823 5823 5824 5825 5826 5828 5829 5830 5831 5831 5832 5833 5833 5834 5834 5835 5835 5835 5835 5835 5835 5834 5833
5790 5792 5793 5795 5798 5800 5801 5803 5804 5806 5807 5808 5809 5810 5810 5811 5812 5813 5814 5815 5816 5817 5817 5818 5819 5820 5821 5822 5823 5824 5825 5825 5825 5826 5826 5827 5827 5827 5827 5827 5827 5826 5826 5825
5784 5786 5788 5790 5792 5794 5796 5797 5799 5800 5801 5802 5803 5804 5805 5806 5807 5807 5808 5809 5810 5810 5811 5811 5812 5813 5814 5815 5815 5816 5817 5818 5818 5818 5818 5819 5819 5819 5818 5818 5818 5817 5817 5816